Overview Statistics Trail Chart Weather Telemetry Raw packets
 

This is the latest recevied weather packets stored in our database for station/object W7TRD. If no packets are shown the sender has not sent any weather packets the latest 10 day(s).

<< 109 110 111 112 113 114 >>
Time Temp. Humidity Pressure Rain* Wind** Luminosity Snow
1787794264 26.67° C 50% 1016.1 hPa 0 mm - 41 W/m² -
1787793959 26.67° C 49% 1016.1 hPa 0 mm - 45 W/m² -
1787793656 26.67° C 49% 1016.1 hPa 0 mm - 38 W/m² -
1787793356 26.67° C 48% 1016.1 hPa 0 mm - 40 W/m² -
1787793051 26.67° C 48% 1016.2 hPa 0 mm - 40 W/m² -
1787792746 26.67° C 49% 1016.2 hPa 0 mm - 41 W/m² -
1787792444 26.67° C 49% 1016.3 hPa 0 mm - 43 W/m² -
1787792143 26.67° C 48% 1016 hPa 0 mm - 51 W/m² -
1787791841 26.67° C 49% 1016.1 hPa 0 mm - 53 W/m² -
1787791536 26.67° C 48% 1016.2 hPa 0 mm - 58 W/m² -
1787791232 27.22° C 48% 1016.3 hPa 0 mm - 62 W/m² -
1787790927 27.22° C 47% 1016.2 hPa 0 mm - 68 W/m² -
1787790623 26.67° C 50% 1016 hPa 0 mm - 74 W/m² -
1787790322 26.67° C 47% 1016.1 hPa 0 mm - 72 W/m² -
1787790018 26.67° C 49% 1016.2 hPa 0 mm - 75 W/m² -
1787789714 26.11° C 48% 1016.4 hPa 0 mm - 75 W/m² -
1787789408 26.11° C 48% 1016.4 hPa 0 mm - 76 W/m² -
1787789102 26.67° C 48% 1016.5 hPa 0 mm - 81 W/m² -
1787788800 26.67° C 48% 1016.5 hPa 0 mm - 91 W/m² -
1787788500 27.22° C 47% 1016.6 hPa 0 mm - 130 W/m² -
1787788198 27.22° C 49% 1016.5 hPa 0 mm - 126 W/m² -
1787787889 26.67° C 48% 1016.4 hPa 0 mm - 137 W/m² -
1787787584 26.67° C 48% 1016.5 hPa 0 mm - 147 W/m² -
1787787279 26.67° C 50% 1016.7 hPa 0 mm - 139 W/m² -
1787786978 26.11° C 50% 1016.5 hPa 0 mm - 130 W/m² -

* Rain latest hour (hover to see other rain measurements)
** Current wind speed in m/s (hover to see current wind gust speed)